When you browse on this site, cookies collect data to enhance your experience and personalize the content and advertising you see.
Visit our Privacy Policy to learn more. By continuing to use the site, you agree to this use of cookies and data.
  • In Hungary
  • List of Countries
  • For 7 days
  • Water Temperature
  • Weather Map
  • News
  • Weather Widgets
  • user-avatar
    Login

    Hourly Weather Custoias

    Today, 17 November, Sunday

    Time Temperature Precipitation Wind Pressure Humidity
    00:00 +6°C° 0 mm 1 mps 712 mmHg 87%
    01:00 +6°C° 0 mm 1 mps 712 mmHg 87%
    02:00 +6°C° 0 mm 1 mps 711 mmHg 87%
    03:00 +6°C° 0 mm 1 mps 711 mmHg 87%
    04:00 +6°C° 0.1 mm 1 mps 711 mmHg 88%
    05:00 +7°C° 0.1 mm 1 mps 710 mmHg 89%
    06:00 +6°C° 0 mm 2 mps 710 mmHg 91%
    07:00 +7°C° 0.2 mm 2 mps 710 mmHg 91%
    08:00 +7°C° 0.2 mm 2 mps 710 mmHg 92%
    09:00 +8°C° 0.2 mm 2 mps 710 mmHg 93%
    10:00 +8°C° 0.1 mm 2 mps 710 mmHg 91%
    11:00 +9°C° 0.1 mm 3 mps 710 mmHg 90%
    12:00 +10°C° 0.1 mm 3 mps 710 mmHg 88%
    13:00 +10°C° 0.4 mm 3 mps 710 mmHg 90%
    14:00 +10°C° 0.4 mm 3 mps 709 mmHg 91%
    15:00 +10°C° 0.4 mm 2 mps 709 mmHg 92%
    16:00 +9°C° 0.2 mm 2 mps 709 mmHg 90%
    17:00 +8°C° 0.2 mm 2 mps 709 mmHg 88%
    18:00 +7°C° 0.2 mm 3 mps 709 mmHg 86%
    19:00 +6°C° 0 mm 2 mps 710 mmHg 87%
    20:00 +6°C° 0 mm 2 mps 710 mmHg 88%
    21:00 +5°C° 0 mm 2 mps 710 mmHg 89%
    22:00 +5°C° 0 mm 2 mps 710 mmHg 90%
    23:00 +4°C° 0 mm 2 mps 711 mmHg 91%

    Tomorrow, 18 November, Monday

    Time Temperature Precipitation Wind Pressure Humidity
    00:00 +5°C° 0 mm 1 mps 711 mmHg 92%
    01:00 +5°C° 0 mm 1 mps 711 mmHg 92%
    02:00 +5°C° 0 mm 1 mps 711 mmHg 93%
    03:00 +4°C° 0 mm 1 mps 711 mmHg 93%
    04:00 +4°C° 0 mm 1 mps 711 mmHg 93%
    05:00 +4°C° 0 mm 1 mps 711 mmHg 93%
    06:00 +4°C° 0 mm 1 mps 711 mmHg 92%
    07:00 +5°C° 0 mm 1 mps 711 mmHg 89%
    08:00 +5°C° 0 mm 1 mps 712 mmHg 85%
    09:00 +6°C° 0 mm 1 mps 712 mmHg 82%
    10:00 +8°C° 0 mm 1 mps 713 mmHg 74%
    11:00 +9°C° 0 mm 1 mps 713 mmHg 66%
    12:00 +10°C° 0 mm 2 mps 713 mmHg 58%
    13:00 +11°C° 0 mm 1 mps 713 mmHg 56%
    14:00 +11°C° 0 mm 1 mps 712 mmHg 54%
    15:00 +12°C° 0 mm 1 mps 712 mmHg 53%
    16:00 +10°C° 0 mm 1 mps 712 mmHg 60%
    17:00 +8°C° 0 mm 0 mps 712 mmHg 66%
    18:00 +6°C° 0 mm 0 mps 712 mmHg 73%
    19:00 +6°C° 0 mm 0 mps 712 mmHg 76%
    20:00 +5°C° 0 mm 0 mps 713 mmHg 78%
    21:00 +5°C° 0 mm 0 mps 713 mmHg 80%
    22:00 +5°C° 0 mm 0 mps 713 mmHg 81%
    23:00 +5°C° 0 mm 0 mps 713 mmHg 82%

    Day after tomorrow, 19 November, Tuesday

    Time Temperature Precipitation Wind Pressure Humidity
    00:00 +4°C° 0 mm 0 mps 713 mmHg 83%
    01:00 +5°C° 0 mm 1 mps 712 mmHg 83%
    02:00 +6°C° 0 mm 1 mps 712 mmHg 82%
    03:00 +6°C° 0 mm 1 mps 712 mmHg 82%
    04:00 +6°C° 0 mm 1 mps 712 mmHg 83%
    05:00 +6°C° 0 mm 1 mps 712 mmHg 83%
    06:00 +5°C° 0 mm 0 mps 712 mmHg 84%
    07:00 +6°C° 0.1 mm 1 mps 712 mmHg 83%
    08:00 +6°C° 0.1 mm 1 mps 712 mmHg 82%
    09:00 +7°C° 0.1 mm 1 mps 712 mmHg 81%
    10:00 +8°C° 0 mm 1 mps 712 mmHg 77%
    11:00 +8°C° 0 mm 1 mps 711 mmHg 72%
    12:00 +8°C° 0 mm 2 mps 711 mmHg 68%
    13:00 +8°C° 0 mm 2 mps 711 mmHg 69%
    14:00 +9°C° 0 mm 2 mps 710 mmHg 70%
    15:00 +9°C° 0 mm 2 mps 710 mmHg 70%
    16:00 +8°C° 0 mm 2 mps 710 mmHg 74%
    17:00 +8°C° 0 mm 2 mps 709 mmHg 78%
    18:00 +7°C° 0 mm 2 mps 709 mmHg 82%
    19:00 +7°C° 0 mm 2 mps 709 mmHg 84%
    20:00 +7°C° 0 mm 2 mps 709 mmHg 85%
    21:00 +7°C° 0 mm 2 mps 709 mmHg 86%
    22:00 +7°C° 0 mm 2 mps 709 mmHg 87%
    23:00 +7°C° 0 mm 2 mps 709 mmHg 89%

    20 November, Wednesday

    Time Temperature Precipitation Wind Pressure Humidity
    00:00 +6°C° 0 mm 2 mps 708 mmHg 90%
    01:00 +7°C° 0.1 mm 2 mps 708 mmHg 90%
    02:00 +7°C° 0.1 mm 2 mps 707 mmHg 90%
    03:00 +7°C° 0.1 mm 2 mps 707 mmHg 90%
    04:00 +7°C° 0 mm 2 mps 707 mmHg 91%
    05:00 +7°C° 0 mm 2 mps 706 mmHg 91%
    06:00 +7°C° 0 mm 2 mps 706 mmHg 92%
    07:00 +7°C° 0 mm 2 mps 706 mmHg 89%
    08:00 +7°C° 0 mm 3 mps 706 mmHg 87%
    09:00 +8°C° 0 mm 3 mps 705 mmHg 84%
    10:00 +7°C° 0.5 mm 4 mps 705 mmHg 83%
    11:00 +7°C° 0.5 mm 4 mps 705 mmHg 83%
    12:00 +7°C° 0.5 mm 5 mps 705 mmHg 82%
    13:00 +7°C° 1.7 mm 4 mps 704 mmHg 85%
    14:00 +7°C° 1.7 mm 4 mps 703 mmHg 87%
    15:00 +7°C° 1.7 mm 4 mps 702 mmHg 90%
    16:00 +7°C° 1.2 mm 4 mps 702 mmHg 91%
    17:00 +7°C° 1.2 mm 4 mps 702 mmHg 91%
    18:00 +7°C° 1.2 mm 4 mps 702 mmHg 92%
    19:00 +7°C° 1.1 mm 4 mps 702 mmHg 91%
    20:00 +7°C° 1.1 mm 5 mps 702 mmHg 90%
    21:00 +7°C° 1.1 mm 5 mps 702 mmHg 89%
    22:00 +6°C° 0.1 mm 4 mps 703 mmHg 89%
    23:00 +6°C° 0.1 mm 4 mps 703 mmHg 90%

    21 November, Thursday

    Time Temperature Precipitation Wind Pressure Humidity
    00:00 +5°C° 0.1 mm 3 mps 703 mmHg 91%
    01:00 +5°C° 0 mm 3 mps 703 mmHg 91%
    02:00 +4°C° 0 mm 3 mps 703 mmHg 92%
    03:00 +5°C° 0 mm 2 mps 703 mmHg 93%
    04:00 +4°C° 0 mm 3 mps 703 mmHg 93%
    05:00 +4°C° 0 mm 3 mps 703 mmHg 93%
    06:00 +4°C° 0 mm 3 mps 703 mmHg 92%
    07:00 +5°C° 0.2 mm 3 mps 703 mmHg 90%
    08:00 +5°C° 0.2 mm 4 mps 704 mmHg 88%
    09:00 +6°C° 0.2 mm 4 mps 704 mmHg 87%
    10:00 +6°C° 0.4 mm 4 mps 704 mmHg 85%
    11:00 +7°C° 0.4 mm 4 mps 704 mmHg 84%
    12:00 +7°C° 0.4 mm 4 mps 704 mmHg 83%
    13:00 +7°C° 0.5 mm 4 mps 703 mmHg 84%
    14:00 +7°C° 0.5 mm 4 mps 703 mmHg 85%
    15:00 +7°C° 0.5 mm 4 mps 702 mmHg 86%
    16:00 +7°C° 0.3 mm 3 mps 702 mmHg 87%
    17:00 +7°C° 0.3 mm 3 mps 703 mmHg 88%
    18:00 +5°C° 0.3 mm 3 mps 703 mmHg 89%
    19:00 +5°C° 0.1 mm 3 mps 703 mmHg 90%
    20:00 +6°C° 0.1 mm 2 mps 703 mmHg 92%
    21:00 +5°C° 0.1 mm 2 mps 703 mmHg 93%
    22:00 +5°C° 0.2 mm 2 mps 703 mmHg 93%
    23:00 +5°C° 0.2 mm 2 mps 703 mmHg 93%

    22 November, Friday

    Time Temperature Precipitation Wind Pressure Humidity
    00:00 +5°C° 0.2 mm 2 mps 703 mmHg 93%
    01:00 +4°C° 0.1 mm 3 mps 703 mmHg 93%
    02:00 +4°C° 0.1 mm 3 mps 703 mmHg 93%
    03:00 +4°C° 0.1 mm 3 mps 703 mmHg 93%
    04:00 +4°C° 0.1 mm 3 mps 703 mmHg 93%
    05:00 +4°C° 0.1 mm 3 mps 703 mmHg 92%
    06:00 +4°C° 0.1 mm 3 mps 703 mmHg 91%
    07:00 +4°C° 0.9 mm 3 mps 703 mmHg 91%
    08:00 +6°C° 0.9 mm 2 mps 704 mmHg 92%
    09:00 +6°C° 0.9 mm 2 mps 704 mmHg 92%
    10:00 +7°C° 0.3 mm 3 mps 704 mmHg 86%
    11:00 +8°C° 0.3 mm 3 mps 705 mmHg 79%
    12:00 +8°C° 0.3 mm 4 mps 705 mmHg 73%
    13:00 +8°C° 0.1 mm 5 mps 705 mmHg 73%
    14:00 +8°C° 0.1 mm 6 mps 705 mmHg 73%
    15:00 +9°C° 0.1 mm 6 mps 704 mmHg 74%
    16:00 +8°C° 0.2 mm 5 mps 705 mmHg 79%
    17:00 +7°C° 0.2 mm 4 mps 705 mmHg 84%
    18:00 +7°C° 0.2 mm 3 mps 706 mmHg 89%
    19:00 +7°C° 0.1 mm 3 mps 706 mmHg 90%
    20:00 +7°C° 0.1 mm 2 mps 707 mmHg 92%
    21:00 +6°C° 0.1 mm 2 mps 707 mmHg 93%
    22:00 +6°C° 0 mm 2 mps 708 mmHg 94%
    23:00 +7°C° 0 mm 1 mps 708 mmHg 94%
    Show more